Погода в Бобруйске

Погода в Бобруйске : погода сейчас, прогноз погоды и архив. Всё, что Вы хотите узнать о погоде в Бобруйске!

Хотите узнать прогноз погоды в Бобруйске? Тогда Вам сюда: Погода в Бобруйске

Поиск расширенной информации на нашем сайте:

Другие новости

Новости СМИ2

Главная страница сайта

Новости сайта

03.07.2017

Напоминаем, что на нашем специализированном сайте Метеоцентр.Азия вы можете получить высокодетализированные автоматические прогнозы погоды по пунктам России, СНГ и мира в авиационном формате (включающие направление и скорость ветра, видимость, явления погоды, количество и форму облачности, нижнюю и верхнюю границу облачности).

Рекомендуем: для вашего бизнеса покупка офиса в бц Ринко Плаза Тимура Фрунзе ул., 24

Погода в Бобруйске - сегодня

Время (UTC), дата Ветер
(°,м/с) 
Видим.   Явления Облачность Т
(°С)
Тd
(°С)
f(%) Тe
(°С)
Pmin
(гПа)
dP
(гПа)
Po
(мм)
O2
(г/м3)
Тmin Tmax R s Состояние
почвы
15 13.10.18 тихо ()   20000 м    3/0 верхняя 
[Ci fib]
+13.7 +7 64 +14  1031.9  -1.4  760  290           
18 13.10.18 тихо ()   8000 м  дымка  ясно 
+4.9 +4.6 98 +5  1032.3  -0.2  760  300    +18.9       
21 13.10.18 тихо ()   7000 м  дымка  ясно 
+2.6 +2.3 98 +3  1032.7  0.2  760  303           
00 14.10.18 тихо ()   7000 м  дымка  ясно 
+1.9 +1.6 98 +2  1032.8  0.1  760  304           
03 14.10.18 тихо ()   6000 м  дымка  ясно 
+0.3 +0 98 1032.8  -0.2  760  306           
06 14.10.18 тихо ()   8000 м  дымка  ясно 
+2.9 +2.7 99 +3  1032.5  760  302  -0.1         
09 14.10.18 тихо ()   15000 м    ясно 
+15.3 +8.8 65 +15  1032.1  0.4  760  288           
12 14.10.18 280 (З) 20000 м    3/0 верхняя 
[Ci fib]
+18.8 +9 53 +20  1030.6  -1.2  759  285           
15 14.10.18 тихо ()   18000 м    3/0 верхняя 
[Ci fib]
+14 +9.2 73 +14  1029.8  -1.1  758  289           
18 14.10.18 тихо ()   8000 м  дымка  ясно 
+5.3 +4.8 97 +5  1030.4  758  299    +19.9       
21 14.10.18 тихо ()   6000 м  дымка  ясно 
+2.7 +2.4 98 +3  1031.1  0.5  759  302           
00 15.10.18 тихо ()   5000 м  дымка  ясно 
+0.9 +0.6 98 +1  1030.8  -0.4  758  304           
03 15.10.18 тихо ()   4600 м  дымка  ясно 
+0.4 +0.1 98 1031  0.1  758  305           
06 15.10.18 тихо ()   2700 м  дымка  3/0 верхняя 
[Ci fib]
+1 +0.7 98 +1  1031  0.1  758  304  -0.5         
09 15.10.18 230 (ЮЗ) 20000 м    3/0 верхняя 
[Ci fib]
+15.4 +6.4 55 +17  1030.2  0.2  759  288           
12 15.10.18 220 (ЮЗ) 20000 м    4/0 верхняя 
[Ci fib]
+19.4 +4.7 38 +21  1029.1  -0.9  758  284           
15 15.10.18 тихо ()   17000 м    6/0 верхняя 
[Ci fib]
+13.2 +5.1 58 +13  1028.6  -0.9  757  290           
18 15.10.18 тихо ()   9000 м  дымка  4/0 верхняя 
[Ci fib]
+4.9 +4.3 96 +5  1029  -0.1  757  299    +19.8       
21 15.10.18 тихо ()   6000 м  дымка  ясно 
+3.7 +3.5 99 +4  1028.6  -0.5  757  300           
00 16.10.18 тихо ()   7000 м  дымка  ясно 
+4 +3.6 97 +4  1028.6  757  300           
03 16.10.18 тихо ()   8000 м  дымка  ясно 
+0.5 +0.2 98 +1  1028.8  757  304           
06 16.10.18 тихо ()   8000 м  дымка  ясно 
+4 +3.8 99 +4  1028.3  -0.3  757  300  +0         
09 16.10.18 200 (Ю) 20000 м    ясно 
+16 +9.2 64 +17  1027.5  0.1  757  286           
12 16.10.18 210 (ЮЗ) 20000 м    ясно 
+20.6 +8.9 47 +21  1026.2  -1  756  282           
15 16.10.18 тихо ()   20000 м    ясно 
+15.9 +8.6 62 +16  1025.8  -0.6  755  286           
Время (UTC), дата Ветер
(°,м/с) 
Видим.   Явления Облачность Т
(°С)
Тd
(°С)
f(%) Тe
(°С)
Pmin
(гПа)
dP
(гПа)
Po
(мм)
O2
(г/м3)
Тmin Tmax R s Состояние
почвы

Для получения пояснительной информации подведите курсор к названию столбца.

ПОГОДА в Бобруйске - архив

Всё, что Вы хотите узнать о погоде в Бобруйске - удобно и подробно!

Выберите нужную дату (начиная с 1 января 2015* года) и нажмите кнопку "Найти".
Будут отображены архивные сводки погоды по пункту Бобруйск, начиная с указанной даты.


Отображать данные в формате CSV (для использования в таблицах Excel)


Внимание! Наш архив погоды предназначен исключительно для личного некоммерческого использования в познавательных целях. Если Вам необходимы официальные справки о состоянии погоды (для производственных, юридических, коммерческих и т.п. целей), обращайтесь в органы Росгидромета.

*Примечание: данная дата относится к архиву по метеостанциям СССР (Россия, СНГ, Балтия).
Архив по метеостанциям Зарубежной Европы и Азии (кроме Китая) хранится 10 дней, по другим регионам земного шара (Китай, Африка, Америка, Австралия, Океания) - 1 день.

Бобруйск - район местоположения метеостанции


Название, широта, долгота, высота метеостанции:
Бобруйск 53.2°ш. 29.2°д. 156 м над ур. моря [Беларусь]

Дополнительная информация

В oтличие oт бoльшинства пoгoдных сайтoв мы публикуем пoдрoбную метеoинфoрмацию в детальнoм прoфессиoнальнoм фoрмате.

Характеристики температуры и влажнoсти вoздуха измеряются на высoте 2 м в тени вдали oт зданий и деревьев.
Скoрoсть ветра измеряется на высoте 10 м (на урoвне рoста челoвека скoрoсть ветра ниже в 1.5-2 раза). Если метеoстанция нахoдится в гoрoде или в лесу, тo скoрoсть ветра занижена на 2-4 м/с пo сравнению с oткрытым местoм. Скoрoсть ветра над акватoриями крупных рек и oзёр, а также на вершинах хoлмoв на 2-5 м/с выше, чем в oбычных услoвиях.
Атмoсфернoе давление в разных тoчках местнoсти мoжет значительнo oтличаться oт давления на метеoстанции, в зависимoсти oт услoвий рельефа (при пoдъёме на 10 м давление пoнижается примернo на 1 мм рт.ст.).